Regional Weather Roundup
Issued by NWS

Home | Current Version | Previous Version | Graphics & Text | Print | Product List | Glossary On
Versions: 1 2 3 4 5 6 7 8 9 10 11 12 13 14 15 16 17 18 19 20 21 22 23 24 25 26 27 28 29 30 31 32 33 34 35 36 37 38 39 40 41 42 43 44 45 46 47 48 49 50
746
ASUS45 KCYS 241710
RWRWY

WYOMING REGIONAL WEATHER ROUNDUP
NATIONAL WEATHER SERVICE CHEYENNE WY
1100 AM MDT THU MAY 24 2018

NOTE:  "FAIR" INDICATES FEW OR NO CLOUDS BELOW 12,000 FEET
WITH NO SIGNIFICANT WEATHER AND/OR OBSTRUCTIONS TO VISIBILITY.

WYZ001-241800-
YELLOWSTONE NATIONAL PARK

CITY           SKY/WX    TMP DP  RH WIND       PRES   REMARKS
LK YELLOWSTONE NOT AVBL
W YELLOWSTONE  NOT AVBL

$$
WYZ002>013-054>058-071-098>099-241800-
NORTHERN WYOMING

CITY           SKY/WX    TMP DP  RH WIND       PRES   REMARKS
JACKSON        CLOUDY    53  46  77 SW6       30.21R
CODY           FAIR      68  43  40 W14G21    30.04R
GREYBULL       FAIR      69  52  54 SE9       29.99F
WORLAND        FAIR      68  53  58 E3        30.01S
SHERIDAN       FAIR      75  51  43 E6        29.95R
BUFFALO        FAIR      70  47  43 S8        30.01R
GILLETTE       FAIR      73  46  38 W7        29.98S
NEWCASTLE      FAIR      66  46  48 S3        30.02S

$$
WYZ014>020-022>026-101>103-241800-
CENTRAL WYOMING

CITY           SKY/WX    TMP DP  RH WIND       PRES   REMARKS
BIG PINEY      FAIR      60  42  51 S3        30.23S
PINEDALE       FAIR      59  41  51 NE5       30.24S
DUBOIS         FAIR      59  41  51 W15G22    30.17F
LANDER         FAIR      69  46  43 VRB3      30.07S
RIVERTON       FAIR      67  46  47 VRB5      30.09S
CASPER         FAIR      68  45  43 SW16      30.09S
DOUGLAS        FAIR      72  47  40 W20       30.06S

$$
WYZ021-027>030-104>119-241800-
SOUTHERN WYOMING

CITY           SKY/WX    TMP DP  RH WIND       PRES   REMARKS
EVANSTON       FAIR      63  42  46 SW9       30.25S
KEMMERER       FAIR      61  39  44 SW15      30.26S
FORT BRIDGER   FAIR      66  38  34 W12G18    30.28R
ROCK SPRINGS   FAIR      64  37  36 W14G23    30.23S
DIXON          FAIR      68  33  28 W7        30.25S
RAWLINS        FAIR      67  35  30 SW16G32   30.21R
SARATOGA       FAIR      66  32  28 SW15G26   30.23S
LARAMIE        FAIR      68  34  28 W14G26    30.21S
CHEYENNE       FAIR      72  39  30 W12       30.15S
TORRINGTON     FAIR      77  45  32 W15G21    30.03S
PINE BLUFFS    FAIR      73  41  31 W9        30.11S

$$




USA.gov is the U.S. government's official web portal to all federal, state and local government web resources and services.